• In Belarus
  • List of Countries
  • For 7 days
  • Water Temperature
  • Weather Map
  • Weather Widgets
  • user-avatar
    Login

    Hourly Weather Shusha

    Today, 3 April, Friday

    Time Temperature Precipitation Wind Pressure Humidity
    00:00 +6°C° 0 mm 1 mps 655 mmHg 87%
    01:00 +6°C° 0 mm 1 mps 655 mmHg 87%
    02:00 +4°C° 0 mm 0 mps 655 mmHg 86%
    03:00 +4°C° 0 mm 0 mps 655 mmHg 87%
    04:00 +4°C° 0 mm 0 mps 655 mmHg 87%
    05:00 +4°C° 0 mm 0 mps 655 mmHg 87%
    06:00 +4°C° 0 mm 0 mps 655 mmHg 87%
    07:00 +6°C° 0 mm 1 mps 656 mmHg 81%
    08:00 +8°C° 0 mm 1 mps 657 mmHg 74%
    09:00 +9°C° 0 mm 2 mps 657 mmHg 68%
    10:00 +9°C° 0 mm 2 mps 657 mmHg 66%
    11:00 +10°C° 0 mm 2 mps 657 mmHg 65%
    12:00 +12°C° 0 mm 2 mps 657 mmHg 63%
    13:00 +11°C° 0.1 mm 3 mps 657 mmHg 65%
    14:00 +11°C° 0.1 mm 3 mps 656 mmHg 66%
    15:00 +11°C° 0.1 mm 3 mps 656 mmHg 67%
    16:00 +10°C° 0.1 mm 2 mps 656 mmHg 74%
    17:00 +9°C° 0.1 mm 2 mps 656 mmHg 80%
    18:00 +8°C° 0.1 mm 2 mps 656 mmHg 87%
    19:00 +8°C° 0 mm 1 mps 656 mmHg 90%
    20:00 +8°C° 0 mm 1 mps 656 mmHg 92%
    21:00 +7°C° 0 mm 1 mps 656 mmHg 95%
    22:00 +7°C° 0 mm 1 mps 656 mmHg 95%
    23:00 +7°C° 0 mm 1 mps 656 mmHg 95%

    Tomorrow, 4 April, Saturday

    Time Temperature Precipitation Wind Pressure Humidity
    00:00 +7°C° 0 mm 1 mps 656 mmHg 95%
    01:00 +7°C° 0 mm 1 mps 657 mmHg 95%
    02:00 +7°C° 0 mm 1 mps 657 mmHg 95%
    03:00 +7°C° 0 mm 1 mps 657 mmHg 95%
    04:00 +7°C° 0 mm 1 mps 657 mmHg 96%
    05:00 +6°C° 0 mm 1 mps 657 mmHg 96%
    06:00 +6°C° 0 mm 1 mps 657 mmHg 96%
    07:00 +6°C° 0.4 mm 1 mps 658 mmHg 96%
    08:00 +6°C° 0.4 mm 1 mps 658 mmHg 95%
    09:00 +7°C° 0.4 mm 1 mps 658 mmHg 95%
    10:00 +6°C° 0.2 mm 2 mps 658 mmHg 94%
    11:00 +6°C° 0.2 mm 2 mps 658 mmHg 94%
    12:00 +6°C° 0.2 mm 2 mps 658 mmHg 93%
    13:00 +6°C° 0.3 mm 2 mps 658 mmHg 93%
    14:00 +6°C° 0.3 mm 2 mps 659 mmHg 94%
    15:00 +6°C° 0.3 mm 2 mps 659 mmHg 95%
    16:00 +5°C° 0.7 mm 2 mps 659 mmHg 95%
    17:00 +5°C° 0.7 mm 2 mps 659 mmHg 96%
    18:00 +5°C° 0.7 mm 2 mps 659 mmHg 97%
    19:00 +6°C° 0.8 mm 1 mps 660 mmHg 97%
    20:00 +5°C° 0.8 mm 1 mps 661 mmHg 97%
    21:00 +5°C° 0.8 mm 1 mps 661 mmHg 97%
    22:00 +4°C° 0.3 mm 0 mps 662 mmHg 96%
    23:00 +5°C° 0.3 mm 0 mps 662 mmHg 95%

    Day after tomorrow, 5 April, Sunday

    Time Temperature Precipitation Wind Pressure Humidity
    00:00 +5°C° 0.3 mm 0 mps 662 mmHg 95%
    01:00 +4°C° 0 mm 0 mps 662 mmHg 93%
    02:00 +4°C° 0 mm 0 mps 662 mmHg 92%
    03:00 +4°C° 0 mm 0 mps 662 mmHg 91%
    04:00 +5°C° 0 mm 1 mps 662 mmHg 90%
    05:00 +5°C° 0 mm 1 mps 662 mmHg 88%
    06:00 +4°C° 0 mm 1 mps 662 mmHg 87%
    07:00 +6°C° 0 mm 1 mps 662 mmHg 82%
    08:00 +8°C° 0 mm 1 mps 663 mmHg 77%
    09:00 +9°C° 0 mm 1 mps 663 mmHg 73%
    10:00 +10°C° 0 mm 1 mps 663 mmHg 72%
    11:00 +10°C° 0 mm 2 mps 663 mmHg 71%
    12:00 +10°C° 0 mm 2 mps 663 mmHg 71%
    13:00 +12°C° 0 mm 2 mps 662 mmHg 70%
    14:00 +12°C° 0 mm 2 mps 662 mmHg 69%
    15:00 +13°C° 0 mm 2 mps 661 mmHg 68%
    16:00 +12°C° 0 mm 1 mps 661 mmHg 72%
    17:00 +11°C° 0 mm 1 mps 661 mmHg 77%
    18:00 +10°C° 0 mm 1 mps 660 mmHg 81%
    19:00 +10°C° 0 mm 1 mps 660 mmHg 83%
    20:00 +9°C° 0 mm 1 mps 660 mmHg 84%
    21:00 +8°C° 0 mm 1 mps 660 mmHg 86%
    22:00 +8°C° 0 mm 1 mps 660 mmHg 84%
    23:00 +8°C° 0 mm 1 mps 660 mmHg 82%

    6 April, Monday

    Time Temperature Precipitation Wind Pressure Humidity
    00:00 +8°C° 0 mm 1 mps 659 mmHg 80%
    01:00 +8°C° 0 mm 1 mps 659 mmHg 79%
    02:00 +7°C° 0 mm 1 mps 659 mmHg 78%
    03:00 +7°C° 0 mm 1 mps 659 mmHg 76%
    04:00 +7°C° 0 mm 1 mps 659 mmHg 77%
    05:00 +7°C° 0 mm 1 mps 659 mmHg 78%
    06:00 +7°C° 0 mm 1 mps 660 mmHg 79%
    07:00 +9°C° 0 mm 1 mps 660 mmHg 77%
    08:00 +10°C° 0 mm 1 mps 661 mmHg 76%
    09:00 +10°C° 0 mm 2 mps 662 mmHg 74%
    10:00 +10°C° 0.1 mm 2 mps 662 mmHg 77%
    11:00 +10°C° 0.1 mm 2 mps 662 mmHg 80%
    12:00 +9°C° 0.1 mm 3 mps 662 mmHg 83%
    13:00 +9°C° 1.1 mm 3 mps 662 mmHg 86%
    14:00 +8°C° 1.1 mm 3 mps 662 mmHg 89%
    15:00 +7°C° 1.1 mm 3 mps 662 mmHg 92%
    16:00 +5°C° 0.5 mm 3 mps 662 mmHg 93%
    17:00 +4°C° 0.5 mm 3 mps 662 mmHg 93%
    18:00 +2°C° 0.5 mm 3 mps 661 mmHg 93%
    19:00 +2°C° 0.3 mm 3 mps 662 mmHg 94%
    20:00 +1°C° 0.3 mm 3 mps 662 mmHg 94%
    21:00 +2°C° 0.3 mm 2 mps 662 mmHg 95%
    22:00 +2°C° 1 mm 2 mps 662 mmHg 95%
    23:00 +1°C° 1 mm 2 mps 662 mmHg 96%

    7 April, Tuesday

    Time Temperature Precipitation Wind Pressure Humidity
    00:00 +1°C° 1 mm 2 mps 663 mmHg 97%
    01:00 -1°C° 1.8 mm 2 mps 663 mmHg 97%
    02:00 -1°C° 1.8 mm 2 mps 663 mmHg 97%
    03:00 +1°C° 1.8 mm 1 mps 663 mmHg 97%
    04:00 +1°C° 1.5 mm 1 mps 663 mmHg 97%
    05:00 0°C° 1.5 mm 1 mps 663 mmHg 97%
    06:00 0°C° 1.5 mm 1 mps 663 mmHg 97%
    07:00 0°C° 0.4 mm 1 mps 663 mmHg 97%
    08:00 +1°C° 0.4 mm 1 mps 663 mmHg 97%
    09:00 +1°C° 0.4 mm 1 mps 663 mmHg 97%
    10:00 +1°C° 0.2 mm 1 mps 663 mmHg 97%
    11:00 +2°C° 0.2 mm 1 mps 663 mmHg 97%
    12:00 +2°C° 0.2 mm 1 mps 663 mmHg 98%
    13:00 +2°C° 0.2 mm 1 mps 663 mmHg 98%
    14:00 +2°C° 0.2 mm 1 mps 663 mmHg 98%
    15:00 +2°C° 0.2 mm 1 mps 662 mmHg 98%
    16:00 +2°C° 0 mm 1 mps 662 mmHg 98%
    17:00 +2°C° 0 mm 1 mps 662 mmHg 97%
    18:00 +1°C° 0 mm 0 mps 662 mmHg 97%
    19:00 +1°C° 0 mm 0 mps 662 mmHg 97%
    20:00 +1°C° 0 mm 0 mps 662 mmHg 97%
    21:00 +1°C° 0 mm 0 mps 662 mmHg 96%
    22:00 +1°C° 0.1 mm 0 mps 662 mmHg 97%
    23:00 +1°C° 0.1 mm 0 mps 662 mmHg 97%

    8 April, Wednesday

    Time Temperature Precipitation Wind Pressure Humidity
    00:00 +1°C° 0.1 mm 0 mps 662 mmHg 98%
    01:00 +1°C° 0.2 mm 0 mps 662 mmHg 98%
    02:00 +1°C° 0.2 mm 0 mps 662 mmHg 98%
    03:00 +1°C° 0.2 mm 0 mps 662 mmHg 98%
    04:00 +2°C° 0.2 mm 1 mps 662 mmHg 98%
    05:00 +2°C° 0.2 mm 1 mps 662 mmHg 98%
    06:00 +2°C° 0.2 mm 1 mps 663 mmHg 98%
    07:00 +2°C° 0.1 mm 1 mps 663 mmHg 97%
    08:00 +2°C° 0.1 mm 1 mps 663 mmHg 97%
    09:00 +3°C° 0.1 mm 1 mps 663 mmHg 97%
    10:00 +3°C° 0.1 mm 1 mps 662 mmHg 97%
    11:00 +3°C° 0.1 mm 1 mps 662 mmHg 97%
    12:00 +3°C° 0.1 mm 1 mps 662 mmHg 97%
    13:00 +3°C° 0 mm 1 mps 662 mmHg 97%
    14:00 +4°C° 0 mm 1 mps 661 mmHg 96%
    15:00 +4°C° 0 mm 1 mps 661 mmHg 95%
    16:00 +4°C° 0 mm 1 mps 661 mmHg 96%
    17:00 +4°C° 0 mm 1 mps 660 mmHg 96%
    18:00 +2°C° 0 mm 0 mps 660 mmHg 96%
    19:00 +2°C° 0 mm 0 mps 660 mmHg 97%
    20:00 +2°C° 0 mm 0 mps 660 mmHg 97%
    21:00 +2°C° 0 mm 0 mps 660 mmHg 97%
    22:00 +2°C° 0 mm 0 mps 660 mmHg 97%
    23:00 +2°C° 0 mm 0 mps 660 mmHg 97%
    Show more